Wind_Speed
25 26 26 27 27 26 25 24 24 23 22 21 21 20 20 21 21 20 21 21 20 21 22 23 22 21 21 21 21 20 20 21 22 22 22 23 23 23 24 24 24 24 23 23
25 26 28 28 29 29 28 26 25 25 23 23 22 22 22 22 22 22 23 23 23 23 23 23 23 22 22 22 22 22 22 22 23 23 24 24 24 25 25 25 24 24 24 24
25 25 28 30 29 29 29 27 27 26 24 24 24 23 24 25 25 26 26 26 25 25 25 25 25 24 24 23 24 24 24 24 24 25 25 26 26 26 26 26 25 25 25 25
25 26 28 27 27 27 27 27 27 27 27 26 26 26 27 28 28 28 28 28 27 27 26 26 26 26 26 25 25 25 25 25 26 26 27 27 27 27 27 27 27 26 26 26
27 27 28 28 27 28 29 29 29 29 28 27 27 29 29 29 30 30 29 29 29 28 27 27 27 27 27 26 27 27 27 27 27 28 28 29 29 29 29 29 28 27 26 25
29 29 29 28 28 29 29 30 31 31 30 30 29 29 29 29 30 30 30 30 28 28 28 28 27 27 28 28 28 27 28 28 29 29 29 29 30 30 30 30 29 28 27 26
31 31 31 29 27 28 30 29 29 30 31 31 29 28 28 29 30 30 29 29 29 28 28 28 29 29 28 29 29 29 29 30 30 31 31 31 31 30 30 30 29 29 28 28
32 32 32 30 30 30 31 31 31 32 32 31 30 29 29 30 30 30 29 29 29 30 30 30 30 30 30 30 30 31 30 31 31 32 32 32 32 31 30 30 30 30 30 29
32 31 31 31 31 31 31 32 32 32 32 31 30 30 30 30 31 30 28 28 30 30 30 30 31 31 31 30 30 31 31 31 32 32 33 33 33 32 31 31 30 30 30 30
32 31 32 31 31 32 32 32 33 32 31 31 30 30 30 30 30 29 28 28 29 30 30 30 31 30 30 30 31 31 31 32 33 33 34 34 32 31 30 30 30 30 30 30
33 33 33 32 31 31 31 31 31 31 31 31 32 31 31 31 31 31 30 30 31 31 31 31 31 32 31 31 31 32 32 32 32 33 32 32 31 30 30 30 30 30 30 30
33 33 32 31 31 30 30 30 31 32 31 31 31 31 31 32 33 32 33 33 33 32 32 32 32 32 32 33 33 33 33 33 33 34 33 32 32 30 30 30 30 29 29 29
32 32 31 30 30 31 31 31 31 31 32 31 31 31 31 32 33 33 33 33 33 33 33 33 34 34 34 34 33 33 33 34 34 34 34 33 33 32 31 31 31 31 32 33
32 31 30 29 29 29 30 31 31 31 31 31 31 31 31 31 32 33 33 34 34 34 35 35 35 36 35 35 35 34 34 34 34 34 34 33 33 33 32 32 32 32 33 33
30 31 30 30 30 30 30 31 31 31 31 32 32 32 32 32 32 33 33 33 33 34 34 35 35 36 34 34 34 34 35 34 34 34 34 33 33 32 32 31 32 32 32 33
28 28 28 29 29 30 31 32 31 31 31 31 31 31 32 33 33 33 32 32 33 34 34 35 35 35 34 33 33 33 34 33 33 33 33 33 33 32 32 32 32 32 32 32
27 27 27 27 29 30 31 31 31 32 31 31 31 32 32 32 32 32 32 32 32 33 33 34 34 34 34 33 33 33 33 33 33 33 33 33 32 32 32 32 32 32 32 32
26 26 26 27 28 29 30 31 30 30 30 31 32 32 32 32 32 32 32 32 33 33 33 33 33 33 33 32 32 32 32 32 32 33 33 32 31 31 31 31 31 31 31 31
25 25 26 26 26 27 28 28 29 29 29 29 30 31 31 31 31 32 32 32 32 32 32 33 33 32 31 31 32 31 32 32 32 33 33 33 32 32 32 32 32 31 30 31
24 24 25 25 26 27 27 27 28 29 29 29 29 29 29 30 31 32 32 32 32 32 32 32 32 31 31 31 32 32 32 32 32 32 32 32 32 32 31 31 31 31 30 30
23 23 24 25 26 26 27 27 28 28 28 29 29 30 30 30 31 31 31 31 31 32 31 31 32 32 31 31 31 32 32 32 32 31 31 31 31 31 31 30 30 29 29 30
22 22 23 23 24 25 26 27 27 27 28 28 29 30 30 30 31 31 30 30 31 31 31 32 32 31 30 30 30 30 30 30 30 30 30 30 30 30 30 30 29 29 29 29
22 23 23 23 24 25 25 26 27 27 28 29 29 30 30 31 31 30 30 30 30 31 31 31 31 31 31 31 30 30 29 29 30 30 29 29 29 29 29 29 29 29 29 29
22 22 22 23 24 24 24 25 26 27 28 29 29 30 31 31 30 30 31 30 30 30 30 30 30 30 30 30 30 30 29 28 29 29 29 29 29 29 29 29 29 29 29 29
23 23 23 23 24 24 25 26 26 26 27 28 29 30 30 30 30 30 30 30 30 30 29 29 29 29 29 29 30 30 30 29 29 29 28 29 29 29 29 29 29 29 28 28
22 23 23 24 25 25 25 26 26 26 26 27 28 29 29 29 30 29 29 29 29 30 30 30 30 30 30 30 29 29 29 29 29 29 29 28 28 28 29 29 29 28 28 28
21 21 22 23 24 24 24 25 25 25 26 26 27 27 28 28 28 28 29 30 29 29 29 29 29 29 29 29 28 28 28 27 27 28 28 28 28 28 28 28 27 27 26 26
Wind_Direction
236 237 238 240 242 245 247 251 255 258 260 261 264 264 267 271 278 282 282 281 283 287 289 289 290 289 289 290 290 291 292 295 297 299 300 301 301 302 303 302 300 299 299 299
237 237 239 240 241 244 246 251 255 258 261 264 262 263 266 270 275 278 281 278 282 285 287 289 290 291 291 289 288 289 291 293 295 297 298 299 299 300 301 301 299 297 297 298
238 237 239 240 242 243 245 251 256 260 264 265 265 266 269 273 276 279 281 280 280 282 283 287 289 288 289 287 287 287 289 291 294 295 295 296 297 298 300 298 299 297 297 295
241 237 239 244 244 246 249 252 257 260 262 264 268 268 271 275 276 278 281 280 280 282 284 286 287 286 286 286 285 285 286 289 291 292 293 294 295 295 296 296 296 296 297 298
243 244 247 247 248 248 252 256 259 261 265 269 272 273 273 273 274 276 279 279 277 278 280 282 282 282 283 284 284 285 287 288 288 290 292 293 293 293 293 294 294 294 296 295
244 247 250 252 251 252 257 259 262 266 269 271 271 272 273 273 273 275 278 278 278 279 279 279 279 279 280 282 283 285 287 288 288 288 289 291 291 291 291 291 292 293 293 292
247 250 253 254 254 256 257 262 265 267 270 272 274 272 273 273 274 277 277 277 277 278 278 279 279 279 279 280 282 283 284 286 286 287 288 289 290 289 288 289 289 290 290 290
248 250 252 254 254 256 260 264 266 268 269 270 272 274 275 276 276 276 278 278 277 278 279 279 279 280 279 280 281 282 283 285 286 287 287 289 288 287 286 287 287 287 287 287
251 255 257 259 258 257 260 264 266 267 267 269 272 274 276 276 276 277 278 278 277 277 280 279 280 281 281 281 282 283 284 285 286 287 287 287 285 284 285 285 285 286 285 285
253 255 257 260 261 261 261 263 265 265 267 269 272 273 275 275 276 278 278 279 279 278 280 281 282 283 283 282 283 283 283 284 286 287 288 288 284 284 284 285 285 284 284 284
254 257 257 257 260 261 263 264 265 265 266 269 273 273 274 275 276 277 279 281 282 281 281 281 282 284 283 282 282 282 283 284 286 287 287 288 285 284 283 284 284 283 282 281
254 256 258 258 259 260 262 264 265 269 269 271 272 274 274 275 277 280 279 280 280 280 280 281 281 281 282 283 280 281 283 284 284 286 287 286 287 285 284 284 283 283 282 281
252 255 257 257 258 260 262 266 270 272 272 274 274 275 276 276 277 278 280 280 280 279 279 280 280 281 282 283 282 280 282 283 284 285 286 287 287 286 285 285 284 284 284 284
250 254 257 258 259 262 265 269 271 272 274 276 276 276 276 277 278 279 279 279 280 279 279 280 280 281 280 280 280 279 280 282 283 284 286 286 286 286 286 284 283 284 285 284
250 252 256 259 262 264 267 270 273 273 274 275 276 277 277 277 278 279 280 280 279 279 279 279 280 281 281 280 279 279 279 281 283 284 285 285 286 286 286 286 286 286 286 286
253 254 256 259 262 265 268 270 272 274 275 276 277 278 278 278 278 278 278 278 279 279 278 278 280 281 282 281 280 280 279 280 282 283 284 284 284 284 285 285 286 286 286 286
255 255 257 258 261 264 266 269 271 273 275 276 277 278 278 278 278 278 278 278 279 279 280 280 280 280 280 280 279 279 279 281 282 282 282 283 283 284 285 286 287 287 286 286
257 258 259 261 262 263 266 268 271 273 275 276 277 277 278 278 279 278 279 279 280 280 280 281 281 280 279 278 278 279 280 281 282 283 283 284 284 284 285 285 286 287 287 287
261 260 261 262 263 264 265 267 269 272 275 277 278 278 278 278 278 278 278 278 279 279 280 281 281 280 279 279 279 280 280 280 281 282 283 283 282 283 284 285 285 286 285 285
259 259 262 264 265 266 267 270 273 275 276 277 278 279 280 279 280 281 279 279 279 279 281 281 280 280 280 281 281 281 280 280 281 282 283 283 283 283 283 284 285 285 285 285
260 262 263 264 265 267 270 273 275 276 278 279 280 281 281 282 283 282 280 280 281 280 281 281 281 280 280 282 282 281 281 281 282 282 281 282 283 283 283 283 284 286 286 286
258 261 263 264 266 269 272 274 275 277 279 280 281 283 284 284 284 283 281 281 282 282 281 281 281 281 280 281 282 282 283 282 282 281 281 282 283 283 284 283 283 285 286 286
260 262 264 266 269 272 274 276 278 280 281 283 285 286 287 287 286 284 282 283 282 282 281 281 281 281 282 283 283 282 282 281 281 281 281 282 283 284 284 284 285 285 286 286
262 265 267 269 271 275 278 280 282 283 284 285 287 288 288 287 287 285 284 284 283 282 282 282 282 283 284 284 283 282 281 281 282 283 282 282 283 284 284 285 285 286 286 286
266 266 268 270 272 275 278 280 282 285 286 287 288 289 289 287 286 287 287 285 283 282 281 281 283 284 285 285 285 284 282 281 281 282 282 283 283 284 285 285 286 286 286 286
269 269 269 272 274 276 279 281 283 286 287 289 290 290 290 288 287 286 287 286 284 283 282 281 282 283 284 285 285 284 284 282 280 280 281 282 283 284 285 286 287 286 286 286
272 272 273 274 276 278 281 283 284 287 289 291 293 293 293 291 289 288 288 288 287 285 283 282 282 283 283 283 284 284 285 284 282 280 281 282 282 284 287 288 288 288 289 288
Height
5866 5867 5868 5869 5871 5872 5873 5874 5875 5876 5877 5878 5878 5879 5879 5879 5879 5879 5879 5879 5879 5878 5877 5876 5875 5874 5873 5871 5870 5868 5867 5865 5864 5862 5860 5858 5856 5853 5851 5848 5845 5843 5841 5839
5860 5861 5863 5863 5865 5866 5867 5868 5869 5870 5871 5872 5872 5873 5873 5874 5874 5874 5873 5872 5872 5872 5871 5870 5869 5868 5867 5866 5864 5863 5861 5860 5858 5856 5854 5852 5850 5847 5844 5841 5839 5836 5834 5832
5853 5855 5856 5858 5860 5861 5862 5863 5864 5865 5866 5866 5866 5866 5867 5867 5867 5867 5866 5866 5866 5865 5864 5863 5862 5861 5860 5859 5858 5857 5855 5853 5852 5850 5848 5846 5843 5841 5838 5835 5832 5830 5828 5826
5847 5849 5850 5853 5853 5854 5855 5857 5857 5858 5859 5858 5859 5859 5860 5860 5860 5859 5859 5858 5858 5857 5856 5856 5855 5854 5853 5852 5851 5849 5847 5846 5845 5843 5841 5839 5836 5834 5831 5829 5826 5824 5821 5819
5840 5841 5843 5845 5846 5848 5849 5850 5851 5851 5851 5852 5852 5851 5851 5852 5852 5852 5851 5850 5850 5849 5849 5848 5848 5847 5846 5845 5844 5843 5841 5839 5838 5836 5834 5831 5829 5826 5824 5821 5819 5816 5814 5812
5833 5834 5836 5839 5840 5841 5843 5842 5844 5844 5845 5845 5844 5844 5844 5843 5842 5843 5843 5842 5842 5841 5841 5840 5840 5839 5838 5837 5836 5834 5833 5831 5830 5828 5826 5823 5821 5818 5815 5813 5811 5809 5806 5804
5825 5827 5828 5832 5833 5835 5836 5837 5837 5837 5837 5837 5836 5836 5836 5835 5835 5834 5834 5833 5833 5833 5832 5832 5831 5830 5829 5828 5827 5826 5825 5823 5821 5819 5817 5814 5812 5810 5807 5805 5803 5801 5799 5796
5817 5819 5823 5824 5826 5828 5828 5828 5828 5828 5829 5828 5828 5828 5827 5827 5826 5826 5825 5824 5824 5824 5823 5822 5821 5821 5820 5819 5818 5817 5815 5813 5812 5810 5808 5805 5803 5801 5798 5796 5794 5792 5790 5788
5811 5813 5814 5815 5817 5818 5819 5820 5820 5820 5820 5820 5820 5819 5819 5818 5817 5817 5816 5816 5815 5815 5814 5813 5813 5812 5811 5810 5808 5807 5806 5804 5802 5800 5798 5796 5794 5791 5789 5787 5785 5783 5781 5779
5802 5804 5805 5807 5808 5809 5811 5812 5812 5812 5812 5812 5811 5811 5810 5809 5809 5808 5807 5807 5806 5806 5805 5804 5803 5802 5802 5800 5799 5798 5796 5795 5793 5791 5789 5786 5783 5781 5779 5777 5775 5773 5771 5770
5794 5796 5798 5799 5800 5801 5802 5803 5803 5803 5803 5803 5803 5803 5802 5801 5801 5800 5800 5799 5798 5797 5797 5796 5794 5793 5793 5791 5790 5788 5787 5785 5784 5781 5779 5777 5774 5772 5770 5768 5765 5763 5762 5760
5787 5788 5790 5791 5792 5793 5794 5794 5794 5795 5795 5795 5794 5794 5794 5793 5792 5792 5791 5790 5789 5788 5787 5786 5785 5784 5783 5781 5779 5778 5777 5775 5774 5771 5769 5766 5764 5762 5760 5758 5755 5753 5752 5751
5779 5780 5781 5782 5783 5785 5785 5785 5786 5786 5786 5786 5786 5785 5785 5785 5784 5783 5782 5781 5780 5779 5778 5777 5775 5774 5772 5770 5769 5768 5767 5766 5764 5762 5759 5757 5755 5753 5751 5749 5747 5744 5742 5741
5770 5772 5773 5774 5775 5776 5777 5777 5777 5777 5777 5777 5777 5776 5776 5775 5774 5773 5772 5771 5770 5769 5768 5766 5765 5763 5762 5760 5759 5758 5757 5755 5753 5751 5749 5747 5745 5743 5741 5739 5737 5735 5733 5731
5762 5764 5765 5766 5767 5768 5768 5768 5768 5768 5767 5767 5767 5767 5766 5765 5764 5763 5762 5761 5760 5759 5757 5756 5754 5752 5750 5749 5748 5747 5746 5745 5743 5741 5739 5737 5735 5733 5731 5729 5727 5725 5722 5720
5754 5755 5757 5758 5759 5759 5759 5759 5759 5758 5758 5758 5757 5757 5756 5755 5754 5753 5752 5751 5749 5748 5747 5745 5744 5742 5740 5739 5738 5736 5735 5734 5732 5731 5729 5727 5724 5722 5720 5719 5716 5714 5712 5710
5745 5747 5748 5749 5750 5750 5750 5750 5749 5749 5749 5749 5748 5747 5746 5745 5744 5742 5741 5740 5739 5737 5736 5734 5733 5732 5730 5728 5727 5726 5724 5723 5722 5720 5718 5716 5714 5712 5710 5708 5706 5703 5701 5699
5737 5738 5739 5740 5741 5741 5741 5740 5740 5740 5740 5739 5738 5737 5736 5735 5733 5732 5731 5730 5728 5727 5725 5724 5722 5721 5719 5718 5716 5715 5714 5712 5711 5709 5707 5705 5703 5702 5700 5698 5696 5693 5691 5688
5728 5729 5730 5731 5732 5732 5731 5731 5731 5731 5730 5729 5728 5727 5726 5724 5723 5722 5720 5719 5718 5716 5715 5713 5712 5710 5709 5707 5706 5705 5703 5702 5700 5699 5697 5695 5693 5691 5689 5687 5685 5683 5681 5678
5720 5721 5722 5723 5723 5723 5723 5723 5722 5722 5721 5720 5719 5717 5716 5714 5713 5712 5710 5709 5708 5706 5705 5703 5702 5700 5699 5698 5696 5694 5693 5691 5689 5688 5686 5684 5682 5681 5679 5677 5675 5672 5670 5668
5713 5714 5714 5714 5715 5715 5714 5714 5713 5713 5712 5711 5710 5708 5706 5705 5703 5701 5700 5699 5698 5696 5694 5693 5692 5690 5689 5687 5685 5684 5682 5680 5679 5677 5675 5674 5672 5670 5668 5667 5665 5663 5660 5658
5706 5706 5707 5707 5707 5707 5706 5706 5705 5704 5703 5702 5700 5699 5697 5695 5693 5691 5690 5689 5687 5685 5684 5683 5681 5679 5678 5676 5675 5673 5671 5670 5668 5667 5665 5664 5662 5660 5658 5656 5654 5653 5650 5648
5698 5698 5699 5699 5699 5698 5698 5697 5696 5695 5694 5692 5691 5689 5687 5685 5683 5681 5679 5678 5676 5675 5673 5672 5671 5669 5667 5666 5664 5663 5661 5659 5658 5657 5655 5654 5652 5650 5648 5646 5644 5642 5641 5639
5691 5691 5691 5691 5691 5690 5690 5689 5688 5686 5685 5683 5681 5679 5677 5674 5672 5670 5669 5667 5665 5664 5663 5662 5660 5658 5657 5655 5654 5652 5650 5649 5648 5646 5645 5644 5642 5640 5638 5636 5635 5633 5631 5629
5683 5683 5683 5683 5683 5682 5682 5681 5679 5678 5676 5674 5672 5669 5666 5664 5662 5660 5658 5656 5655 5654 5652 5651 5650 5648 5646 5645 5643 5641 5640 5639 5637 5636 5635 5633 5632 5630 5628 5626 5625 5623 5621 5619
5676 5676 5675 5675 5675 5674 5673 5672 5671 5669 5667 5665 5662 5660 5657 5654 5652 5650 5648 5646 5644 5643 5642 5641 5639 5637 5636 5634 5633 5631 5630 5628 5627 5625 5624 5623 5621 5620 5618 5616 5614 5612 5611 5609
5668 5668 5667 5667 5667 5666 5665 5663 5662 5660 5658 5656 5653 5651 5648 5645 5642 5640 5638 5636 5634 5633 5631 5630 5628 5627 5625 5624 5622 5621 5619 5618 5616 5615 5614 5612 5611 5610 5608 5606 5605 5603 5601 5599